Regional Weather Roundup
Issued by NWS Newport/Morehead, NC

Current Version | Previous Version | Graphics & Text | Print | Product List | Glossary Off
Versions: 1 2 3 4 5 6 7 8 9 10 11 12 13 14 15 16 17 18 19 20 21 22 23 24 25 26 27 28 29 30 31 32 33 34 35 36 37 38 39 40 41 42 43 44 45 46 47 48 49 50

000
ASUS42 KMHX 251913
RWRMHX
WEATHER ROUNDUP FOR EASTERN NORTH CAROLINA
NATIONAL WEATHER SERVICE NEWPORT/MOREHEAD CITY NC
300 PM EDT MON SEP 25 2017

NOTE: "FAIR" INDICATES FEW OR NO CLOUDS BELOW 12,000 FEET
WITH NO SIGNIFICANT WEATHER AND/OR OBSTRUCTIONS TO VISIBILITY

NCZ015>017-031-032-045>047-102-103-252000-
NORTH COAST

CITY           SKY/WX    TMP DP  RH WIND       PRES   REMARKS
EDENTON        MOSUNNY   81  70  71 NE9G16    29.93F
ELIZABETH CITY PTSUNNY   78  71  79 NE16      29.93F
KITTY HAWK     CLOUDY    72  66  82 NE13G20   29.91F
MANTEO         CLOUDY    74  69  84 NE14G22   29.92F

$$

NCZ045>047-081-094-103-104-252000-
CENTRAL COAST

CITY           SKY/WX    TMP DP  RH WIND       PRES   REMARKS
FRISCO         CLOUDY    78  73  84 NE15G25   29.86F

$$

NCZ095-097-098-100-101-252000-
SOUTHERN COAST

CITY           SKY/WX    TMP DP  RH WIND       PRES   REMARKS
BEAUFORT       CLOUDY    80  74  81 N17G29    29.85F
CEDAR ISLAND   NOT AVBL
JACKSONVILLE   CLOUDY    81  72  74 N14       29.86F
PINEY ISLAND   FLURRIES N/A N/A N/A N21G29    29.86F
WILMINGTON     CLOUDY    80  71  74 N13       29.87F


$$

NCZ011>013-027>030-043-044-078>080-089-090>093-098-252000-
COASTAL PLAIN

CITY           SKY/WX    TMP DP  RH WIND       PRES   REMARKS
AHOSKIE        PTSUNNY   78  68  69 N9G17     29.96S
CLINTON        CLOUDY    78  70  75 NE7       29.93F
ELIZABETHTOWN  NOT AVBL
GOLDSBORO      PTSUNNY   79  73  83 N13       29.91F
GREENVILLE     PTSUNNY   81  70  69 NE12      29.95F
HAVELOCK       CLOUDY    80  72  76 N15       29.88F
KENANSVILLE    CLOUDY    79  70  73 N15       29.92F
KINSTON        PTSUNNY   81  70  69 N14       29.91F
NEW BERN       CLOUDY    80  72  76 NE14      29.90F
RICHLANDS      CLOUDY    79  71  76 N9        29.89F
ROCKY MOUNT    CLOUDY    80  68  66 NE8       29.95F
WASHINGTON     MOSUNNY   82  69  64 NE18      29.92F
WHITEVILLE     PTSUNNY   78  68  73 N8        29.91F

$$

AMZ130-135-150-152-154-156-158-170-250-252-270-ANZ085-086-088-633-658-670-252000-
MARINE OBSERVATIONS

STATION/POSITION TIME  TEMP    WIND        PRES    WAVE   SWELL
                       AIR SEA DIR/SP/G            HT/PER HT/PER
                 (UTC) (F)     (DEG/KT/KT) (MB)    (FT/S) (FT/S)
CHESAPEAKE LIGHT NOT AVBL
64 E VA BEACH    1850   71 70   50/ 16/ 19 1013.9   14/15  13/15
DUCK             1848   72 76   30/ 21/ 24 1013.2
2 E DUCK         1900      76                N/A     8/15   5/15
OREGON INLET     1842   74 76   10/ 18/ 22 1012.5
13E OREGON INLT  1848      75                N/A    12/14  11/14
HATTERAS CG      1848   76 77   30/ 17/ 22 1011.0
DIAMOND BUOY     1850   75 78   20/ 25/ 31 1009.3   14/14  13/14
CAPE LOOKOUT     1900   79      20/ 23/ 30 1010.1
BEAUFORT LAB     1848   78 75   20/ 16/ 23 1010.3
30 SE NEW RVR IN 1808   79      30/ 21/ 27 1009.7
30 SE NEW RVR IN NOT AVBL
27 SE WRIGHTSVLE 1808   79 80   50/ 19/ 29 1009.9
5 SE WRIGHTSVLE  NOT AVBL
225 S CAPE HAT   1850   81 81  360/ 37/ 43  994.0   22/11
41 SE CHARLESTON 1850   76 81   10/ 21/ 25 1009.9   10/11   8/11

$$




USA.gov is the U.S. government's official web portal to all federal, state and local government web resources and services.